Date,TemperatureHighF,TemperatureAvgF,TemperatureLowF,DewpointHighF,DewpointAvgF,DewpointLowF,HumidityHigh,HumidityAvg,HumidityLow,PressureMaxIn,PressureMinIn,WindSpeedMaxMPH,WindSpeedAvgMPH,GustSpeedMaxMPH,PrecipitationSumIn
2013-1-1,43.3,39.5,30.9,41.7,37.4,27.7,95,92,88,30.20,29.99,18,2,18,0.33
2013-1-2,34.5,29.7,25.2,27.7,23.2,20.7,88,77,58,30.29,30.17,8,1,8,0.01
2013-1-3,44.4,34.2,24.0,29.9,25.3,20.1,89,71,48,30.42,30.26,11,1,11,0.00
2013-1-4,49.6,35.5,24.7,33.3,27.8,22.2,92,75,48,30.51,30.38,11,0,11,0.00
2013-1-5,45.2,38.2,29.3,37.0,31.6,26.4,89,77,63,30.40,30.25,9,1,9,0.00
2013-1-6,52.9,40.5,32.5,40.2,34.7,27.6,94,81,53,30.38,30.23,17,2,17,0.00
2013-1-7,51.9,36.3,26.6,30.8,27.2,23.0,87,72,42,30.43,30.21,13,1,13,0.00
2013-1-8,57.7,46.7,32.3,45.6,36.0,26.6,82,67,52,30.28,30.14,12,1,12,0.00
2013-1-9,56.2,54.1,52.2,54.4,51.7,45.6,95,92,71,30.33,30.19,13,2,13,0.96
2013-1-10,67.8,61.8,55.1,63.8,59.9,53.7,97,93,86,30.26,29.87,29,5,29,0.95
2013-1-11,68.3,61.6,54.9,61.4,54.3,50.2,93,78,54,30.03,29.91,16,2,18,0.00
2013-1-12,71.6,68.0,63.5,67.3,65.2,61.4,96,91,82,29.94,29.71,18,3,18,0.29
2013-1-13,70.2,43.0,31.1,64.8,40.6,26.7,95,91,83,30.26,29.71,24,5,24,3.55
2013-1-14,31.0,28.1,26.1,26.7,23.8,21.8,89,84,77,30.41,30.24,21,4,21,0.02
2013-1-15,31.1,28.3,25.6,29.3,25.7,22.1,93,90,85,30.27,30.05,15,2,15,0.00
2013-1-16,32.9,31.2,29.2,30.7,28.7,27.0,95,91,88,30.20,30.05,0,0,0,0.01
2013-1-17,46.9,37.9,32.4,36.9,31.3,27.5,90,77,63,30.47,30.11,24,2,24,0.12
2013-1-18,54.4,39.5,26.3,32.7,28.3,23.2,91,67,35,30.57,30.34,7,1,7,0.01
2013-1-19,58.6,47.1,36.9,36.7,33.5,29.5,76,61,40,30.35,30.16,17,2,18,0.00
2013-1-20,59.6,47.3,34.8,37.1,33.6,28.6,92,61,39,30.26,30.14,14,1,14,0.00
2013-1-21,43.4,35.9,27.8,28.7,21.5,18.4,71,56,39,30.34,30.16,16,3,16,0.00
2013-1-22,39.7,31.7,24.6,20.5,18.6,16.2,76,59,43,30.44,30.31,10,1,10,0.00
2013-1-23,54.4,40.9,28.8,40.6,30.3,19.0,86,66,53,30.35,30.16,8,1,8,0.00
2013-1-24,44.9,39.4,34.7,40.6,26.4,19.1,88,60,48,30.42,30.19,19,4,19,0.00
2013-1-25,51.1,40.4,33.9,46.1,33.4,23.5,92,78,49,30.25,30.02,23,2,23,0.09
2013-1-26,54.9,42.5,32.2,37.7,33.1,30.1,93,72,42,30.34,30.23,12,2,12,0.00
2013-1-27,64.0,54.0,46.7,53.5,44.2,35.0,81,70,62,30.25,30.10,16,3,16,0.01
2013-1-28,72.8,63.5,57.6,62.1,57.1,53.2,91,80,67,30.15,30.03,20,5,20,0.02
2013-1-29,76.0,67.8,59.0,64.9,60.9,56.5,93,79,61,30.03,29.43,31,5,31,0.13
2013-1-30,68.5,48.2,33.7,65.4,41.5,25.8,95,78,59,30.03,29.46,33,8,33,1.25
2013-1-31,54.9,41.1,29.3,36.3,29.1,21.9,84,64,43,30.32,30.02,23,4,23,0.00
2013-2-1,36.7,29.5,22.1,21.9,12.9,8.8,66,50,36,30.54,30.30,18,2,18,0.00
2013-2-2,51.9,38.3,28.2,37.2,28.3,15.2,84,68,49,30.31,30.13,17,2,17,0.02
2013-2-3,53.9,45.2,37.4,35.4,31.6,26.7,85,61,39,30.19,30.10,26,5,26,0.00
2013-2-4,57.4,46.1,37.0,43.9,35.1,27.7,88,67,42,30.10,29.90,17,2,17,0.06
2013-2-5,65.3,51.0,41.2,50.7,44.1,38.6,94,79,50,30.05,29.91,12,1,12,0.00
2013-2-6,61.9,51.4,40.2,46.0,42.3,37.5,95,73,55,30.19,30.03,14,2,14,0.01
2013-2-7,68.8,59.0,48.6,55.3,49.3,38.7,92,71,59,30.03,29.85,10,1,10,0.18
2013-2-8,57.5,44.5,34.4,55.4,39.2,29.8,93,82,70,30.30,29.87,20,4,20,0.40
2013-2-9,51.2,42.0,30.0,39.7,33.7,26.8,92,73,58,30.32,30.03,15,2,15,0.02
2013-2-10,60.6,55.2,50.4,58.2,49.0,38.0,94,80,57,30.04,29.71,26,4,27,0.98
2013-2-11,58.3,51.1,45.5,53.8,35.4,29.9,89,56,35,30.19,29.94,14,2,14,0.00
2013-2-12,51.7,46.8,41.3,40.2,36.7,33.3,87,68,53,30.14,29.77,15,3,15,0.02
2013-2-13,44.6,41.2,38.1,40.9,37.7,35.0,98,87,77,30.02,29.76,14,3,14,0.09
2013-2-14,62.1,48.1,35.3,42.7,37.3,33.2,93,69,38,30.06,29.99,16,2,16,0.01
2013-2-15,54.8,46.1,37.9,39.7,33.2,27.2,84,62,38,30.19,30.03,20,3,20,0.00
2013-2-16,38.9,34.4,28.6,26.9,21.1,18.3,73,58,46,30.26,30.18,23,4,23,0.00
2013-2-17,55.4,42.8,30.8,32.4,26.2,20.5,67,53,38,30.26,30.06,16,3,16,0.00
2013-2-18,57.4,51.1,43.0,51.9,43.1,32.3,93,75,55,30.08,29.75,31,6,31,1.21
2013-2-19,48.7,42.0,34.3,39.2,29.4,24.1,82,62,40,30.27,29.94,25,7,25,0.00
2013-2-20,36.5,33.3,30.3,25.1,19.7,13.9,75,57,47,30.35,30.17,15,2,15,0.00
2013-2-21,46.7,39.2,32.8,44.2,32.2,22.9,93,77,49,30.18,29.74,19,5,19,0.72
2013-2-22,49.9,41.9,36.3,41.4,37.8,32.5,95,86,66,30.08,29.87,10,1,11,0.01
2013-2-23,52.4,39.8,30.4,32.8,30.1,26.9,92,70,45,30.06,29.94,13,2,13,0.00
2013-2-24,58.7,45.0,31.2,35.1,31.3,26.9,85,61,39,30.10,29.89,15,2,15,0.00
2013-2-25,59.1,51.9,41.7,53.9,40.5,28.4,94,66,48,29.90,29.30,27,8,27,0.53
2013-2-26,53.3,44.6,40.7,51.3,38.5,33.4,93,79,69,29.81,29.32,25,5,25,0.01
2013-2-27,46.0,42.2,39.5,36.2,33.4,29.9,75,71,62,29.97,29.81,20,6,20,0.00
2013-2-28,42.9,39.0,34.9,30.9,28.6,26.3,76,66,57,30.10,29.96,24,6,24,0.00
2013-3-1,37.6,35.4,32.5,29.8,27.8,25.2,81,74,66,30.15,30.08,18,6,18,0.00
2013-3-2,34.4,32.1,30.2,28.4,25.1,21.3,88,75,63,30.25,30.13,21,4,21,0.00
2013-3-3,49.2,36.5,22.2,27.8,23.5,18.8,90,62,36,30.24,30.06,13,1,13,0.00
2013-3-4,67.8,53.9,36.1,48.6,35.1,24.6,67,50,33,30.07,29.75,22,4,26,0.00
2013-3-5,63.2,49.9,38.2,56.9,39.4,23.3,91,68,43,30.17,29.75,38,10,38,0.33
2013-3-6,45.3,38.2,34.1,29.0,25.8,22.1,75,61,51,30.35,30.16,21,4,21,0.00
2013-3-7,54.4,41.6,32.8,33.3,30.0,26.7,80,65,44,30.39,30.27,10,1,10,0.00
2013-3-8,64.1,49.4,33.7,35.1,30.3,27.4,82,52,26,30.39,30.16,11,2,11,0.00
2013-3-9,70.4,59.0,51.4,42.5,35.9,28.7,50,42,29,30.16,29.91,19,3,19,0.00
2013-3-10,64.8,58.6,51.9,57.7,50.9,42.8,95,77,47,29.94,29.72,30,5,30,0.97
2013-3-11,51.4,42.4,37.7,49.7,35.0,31.3,94,75,63,30.03,29.81,25,5,25,0.00
2013-3-12,56.2,43.7,30.0,36.7,30.1,24.2,93,63,30,30.21,30.01,18,3,18,0.00
2013-3-13,49.9,44.0,36.6,32.0,27.5,24.0,73,53,41,30.40,30.21,22,5,22,0.00
2013-3-14,64.7,47.0,30.6,37.9,30.9,24.8,82,56,33,30.42,30.16,15,2,15,0.00
2013-3-15,77.3,63.0,48.8,55.2,46.5,36.6,69,55,45,30.16,29.87,21,3,21,0.00
2013-3-16,76.7,67.0,58.3,57.8,53.8,48.5,77,63,50,29.91,29.80,19,4,19,0.00
2013-3-17,72.6,62.7,53.3,57.9,53.1,48.3,84,71,56,29.89,29.67,19,1,19,0.13
2013-3-18,68.0,56.7,45.5,61.1,51.9,41.9,93,84,74,30.03,29.64,25,4,25,0.49
2013-3-19,58.7,48.2,36.6,42.0,32.7,23.3,94,60,27,30.18,30.01,12,2,12,0.01
2013-3-20,54.5,46.9,38.2,36.5,26.8,13.4,67,46,29,30.22,30.07,27,6,27,0.00
2013-3-21,47.6,39.0,29.5,31.5,20.1,14.5,86,48,28,30.11,29.93,13,2,13,0.04
2013-3-22,47.4,41.9,33.9,43.6,39.1,30.6,93,90,86,29.99,29.85,15,4,15,0.46
2013-3-23,54.4,49.2,45.6,49.4,46.0,43.1,94,89,81,29.90,29.66,15,3,15,0.53
2013-3-24,51.2,45.4,36.4,49.4,40.1,26.1,96,82,65,29.95,29.53,33,8,38,0.07
2013-3-25,39.8,36.5,32.8,27.4,24.6,21.7,69,62,55,30.25,29.95,31,12,33,0.00
2013-3-26,47.2,37.8,30.9,28.6,25.9,22.6,82,63,45,30.36,30.23,23,5,23,0.00
2013-3-27,58.2,44.2,28.4,37.3,30.2,24.7,87,61,37,30.42,30.28,14,1,14,0.00
2013-3-28,69.1,52.5,36.0,42.8,35.7,31.1,84,56,32,30.34,30.20,10,1,10,0.00
2013-3-29,64.3,55.4,50.9,53.1,45.3,36.5,92,71,41,30.24,30.14,14,1,14,0.17
2013-3-30,58.5,54.3,50.9,56.8,52.4,49.0,95,93,91,30.16,29.91,9,1,9,0.41
2013-3-31,67.0,57.6,50.3,61.5,54.6,48.1,99,90,73,29.95,29.85,17,2,17,0.03
2013-4-1,69.3,56.1,42.9,51.1,45.8,40.8,96,71,45,30.10,29.91,13,2,13,0.01
2013-4-2,53.0,46.4,39.5,40.8,33.4,28.6,88,62,45,30.24,30.08,15,4,15,0.08
2013-4-3,49.5,45.2,40.4,37.4,31.8,26.0,82,60,45,30.21,30.10,15,3,15,0.05
2013-4-4,48.9,44.6,40.9,45.2,41.1,31.8,98,88,52,30.11,29.95,11,2,11,0.41
2013-4-5,69.3,54.2,42.5,48.7,41.6,34.4,96,68,31,30.16,30.03,12,1,12,0.01
2013-4-6,75.2,60.5,44.0,47.1,43.1,40.1,92,57,30,30.09,29.90,22,2,22,0.00
2013-4-7,72.8,63.5,59.0,57.2,51.2,44.7,77,65,51,30.02,29.89,13,2,16,0.00
2013-4-8,79.2,69.2,60.9,60.4,57.7,52.0,82,68,50,29.97,29.84,19,3,19,0.00
2013-4-9,82.5,72.9,65.4,68.2,64.2,59.0,87,75,60,29.97,29.84,23,3,23,0.00
2013-4-10,84.0,76.9,71.0,68.9,66.2,64.5,84,70,54,29.93,29.65,22,4,22,0.01
2013-4-11,74.9,52.3,43.8,66.5,50.3,41.5,96,93,74,29.80,29.65,20,4,22,2.73
2013-4-12,68.5,54.5,39.8,49.6,44.2,38.1,95,72,43,29.99,29.80,20,2,20,0.01
2013-4-13,76.2,59.1,44.2,48.6,43.4,38.4,84,59,32,30.09,29.90,10,1,10,0.00
2013-4-14,68.8,62.1,55.9,57.6,51.5,46.0,84,69,57,29.91,29.73,24,3,24,0.00
2013-4-15,82.3,68.0,54.9,65.0,59.6,52.4,94,76,52,29.91,29.80,17,2,17,0.00
2013-4-16,85.6,76.1,68.6,72.2,69.2,63.2,91,80,61,30.02,29.89,7,3,19,0.00
2013-4-17,86.8,76.8,67.9,71.8,68.8,65.8,94,77,55,30.05,29.83,7,2,21,0.00
2013-4-18,79.9,70.0,45.2,68.6,62.0,43.6,94,77,57,29.85,29.57,19,6,43,2.02
2013-4-19,55.9,47.6,43.8,43.2,35.1,31.3,94,63,45,30.13,29.82,25,7,26,0.01
2013-4-20,68.3,54.8,38.1,44.9,39.0,35.4,92,59,34,30.25,30.13,16,1,16,0.00
2013-4-21,70.2,59.0,46.8,43.3,39.1,36.9,70,49,31,30.32,30.15,14,3,14,0.00
2013-4-22,76.2,62.3,46.2,52.8,47.1,39.5,81,59,42,30.18,29.99,15,2,15,0.00
2013-4-23,75.0,66.1,57.2,62.7,58.3,50.7,89,77,63,30.04,29.88,22,3,22,0.00
2013-4-24,69.3,50.5,42.1,63.1,44.5,38.4,93,80,60,30.28,29.84,24,4,24,0.70
2013-4-25,68.8,53.8,36.9,43.7,39.7,34.8,94,63,33,30.38,30.26,10,1,10,0.01
2013-4-26,69.0,57.0,48.8,51.4,45.2,40.0,81,66,40,30.39,30.16,17,3,17,0.09
2013-4-27,74.6,63.4,54.4,66.8,58.4,48.1,93,84,75,30.20,29.85,20,3,20,0.09
2013-4-28,69.0,61.9,53.5,59.1,55.2,50.5,91,79,61,29.95,29.90,13,3,13,0.01
2013-4-29,79.8,65.6,49.2,61.0,54.7,47.2,94,71,47,30.00,29.86,8,1,8,0.01
2013-4-30,82.8,70.5,56.2,62.1,56.3,50.1,82,63,42,29.94,29.86,14,2,14,0.00
2013-5-1,78.3,70.4,63.0,67.9,61.2,55.5,82,73,64,30.03,29.91,16,2,16,0.03
2013-5-2,68.2,64.2,61.8,62.5,60.6,57.8,96,88,79,30.08,29.97,11,1,11,0.84
2013-5-3,63.6,49.5,38.2,62.4,47.9,35.5,96,94,89,29.99,29.87,19,4,19,1.65
2013-5-4,57.1,45.8,34.4,45.1,39.9,32.8,95,82,54,29.96,29.87,17,1,17,0.14
2013-5-5,60.6,51.2,44.6,50.0,45.5,42.7,94,82,55,29.92,29.85,21,4,21,0.59
2013-5-6,64.2,58.0,52.8,56.2,53.5,49.7,93,85,73,29.94,29.84,17,4,17,0.01
2013-5-7,75.8,64.5,50.8,59.9,56.3,48.8,95,77,52,29.99,29.91,11,1,11,0.00
2013-5-8,84.5,70.3,53.4,63.2,58.5,51.7,95,69,45,30.06,29.97,11,1,11,0.00
2013-5-9,82.2,70.8,60.7,65.3,61.2,56.5,87,73,53,30.05,29.93,21,2,21,0.00
2013-5-10,76.6,68.3,63.3,71.3,64.6,61.2,95,88,73,29.95,29.83,14,1,14,1.36
2013-5-11,73.3,66.4,60.5,64.6,57.6,52.4,94,75,50,30.04,29.90,15,2,15,0.00
2013-5-12,67.1,60.0,50.0,55.1,40.3,31.8,80,50,29,30.21,30.03,23,2,23,0.00
2013-5-13,77.3,63.1,45.0,53.8,47.7,41.1,89,60,35,30.26,30.10,12,1,12,0.00
2013-5-14,87.7,74.3,60.4,63.4,56.7,51.4,74,56,37,30.11,29.99,18,2,18,0.00
2013-5-15,86.8,75.9,65.5,60.6,57.4,53.5,70,54,38,30.09,29.93,22,2,22,0.00
2013-5-16,77.0,71.1,65.8,65.5,62.3,58.8,89,74,60,29.97,29.87,15,1,15,0.01
2013-5-17,82.8,71.9,65.5,71.3,66.4,62.3,95,84,62,29.92,29.85,14,2,14,0.24
2013-5-18,84.9,75.9,66.9,75.9,71.2,64.9,95,86,70,29.97,29.87,11,1,11,0.00
2013-5-19,88.5,79.7,72.5,73.4,70.3,66.4,92,75,51,29.95,29.83,15,2,15,0.00
2013-5-20,88.3,80.4,73.3,73.9,71.4,69.9,90,75,61,29.93,29.79,20,4,20,0.00
2013-5-21,77.9,70.6,63.6,72.1,67.4,62.3,96,90,77,29.95,29.74,26,2,26,3.60
2013-5-22,82.3,70.9,62.7,67.5,64.0,61.5,96,80,56,29.88,29.72,16,2,16,0.07
2013-5-23,84.7,74.7,64.1,65.9,62.5,58.1,90,67,47,30.09,29.88,16,2,16,0.00
2013-5-24,75.8,66.3,56.9,58.5,52.9,49.7,83,64,41,30.27,30.09,17,3,17,0.00
2013-5-25,80.5,68.1,53.1,60.4,54.6,48.2,85,64,43,30.28,30.12,11,1,11,0.00
2013-5-26,85.8,73.1,58.1,62.7,58.5,54.3,87,62,40,30.17,30.05,11,1,12,0.00
2013-5-27,87.1,75.9,65.5,71.5,63.8,58.9,80,67,44,30.07,29.93,17,2,17,0.00
2013-5-28,89.2,78.8,71.3,70.9,65.5,61.1,83,65,44,30.02,29.93,17,3,17,0.00
2013-5-29,87.5,78.1,65.1,71.7,66.1,59.2,83,67,46,30.01,29.89,20,2,20,0.00
2013-5-30,85.3,76.9,72.5,72.8,69.8,67.2,90,79,64,30.00,29.87,27,3,27,0.01
2013-5-31,86.2,77.8,67.5,76.1,72.1,65.2,94,83,69,29.97,29.81,19,2,19,0.54
2013-6-1,84.0,73.5,66.3,74.3,69.7,63.6,95,88,62,29.97,29.78,30,3,30,0.56
2013-6-2,80.9,72.4,67.7,68.9,65.4,60.6,94,80,62,29.95,29.87,14,2,14,0.02
2013-6-3,81.2,71.6,61.7,65.2,61.8,59.3,93,73,52,29.99,29.88,10,1,10,0.00
2013-6-4,87.8,75.0,62.3,67.5,63.6,59.0,89,70,47,29.99,29.87,10,1,10,0.00
2013-6-5,92.8,78.2,69.4,75.4,69.5,64.0,91,75,53,29.93,29.76,18,1,18,0.10
2013-6-6,82.5,75.8,67.9,70.5,67.4,65.7,95,77,59,29.81,29.72,13,2,13,0.01
2013-6-7,82.8,74.7,67.7,66.7,61.2,55.3,80,64,43,29.87,29.74,15,3,16,0.00
2013-6-8,88.4,74.7,59.9,63.8,59.3,54.2,93,62,36,29.97,29.85,9,1,11,0.00
2013-6-9,90.1,76.0,68.1,72.7,67.4,60.0,94,76,54,29.96,29.77,16,2,16,0.02
2013-6-10,94.0,81.3,69.1,73.6,69.5,65.8,96,71,40,29.91,29.83,17,2,17,0.01
2013-6-11,98.2,86.4,73.4,76.4,72.7,69.5,89,66,42,30.00,29.89,13,2,13,0.00
2013-6-12,96.5,86.5,74.0,78.7,75.1,70.9,92,70,52,30.02,29.87,15,1,15,0.00
2013-6-13,94.6,85.0,75.2,77.8,72.3,65.7,84,67,44,29.93,29.83,23,4,23,0.00
2013-6-14,87.1,78.0,68.0,66.2,62.9,57.8,89,62,43,30.01,29.91,14,2,14,0.00
2013-6-15,90.8,79.1,65.8,69.2,65.1,61.2,87,64,45,30.04,29.93,10,1,10,0.00
2013-6-16,93.0,80.3,72.0,75.3,70.3,66.9,85,72,54,30.01,29.90,13,1,13,0.14
2013-6-17,84.5,76.0,70.9,75.4,71.6,68.9,95,86,73,29.96,29.81,20,2,20,0.89
2013-6-18,84.2,75.5,68.6,70.8,69.3,67.4,96,82,60,29.95,29.80,13,2,13,0.07
2013-6-19,91.2,77.2,68.0,73.4,69.2,65.2,95,79,47,30.01,29.91,17,1,17,0.43
2013-6-20,93.8,81.7,68.5,72.6,69.6,66.1,93,69,46,30.09,30.00,9,1,9,0.01
2013-6-21,91.5,82.0,72.1,74.5,71.1,67.5,87,71,53,30.13,30.03,11,1,11,0.00
2013-6-22,91.1,81.8,71.2,74.1,70.6,67.4,88,70,53,30.11,29.98,12,2,12,0.00
2013-6-23,92.7,82.0,71.3,73.3,69.9,66.2,85,68,50,30.07,29.97,10,1,10,0.00
2013-6-24,95.3,83.9,73.9,77.2,73.5,70.5,90,73,51,30.09,29.97,10,2,12,0.00
2013-6-25,93.3,83.9,74.3,76.4,72.9,69.1,91,71,50,30.05,29.90,16,3,16,0.00
2013-6-26,93.8,85.0,75.1,76.0,72.6,69.4,88,68,46,29.97,29.82,18,3,18,0.00
2013-6-27,100.0,86.1,74.6,81.6,75.6,69.9,90,72,53,29.90,29.77,34,3,34,0.16
2013-6-28,90.2,79.8,71.6,76.9,72.0,68.7,96,79,51,29.87,29.67,17,2,17,0.85
2013-6-29,90.1,80.1,69.8,69.7,65.0,59.7,87,62,39,29.73,29.65,19,3,19,0.00
2013-6-30,80.3,73.8,67.8,67.6,63.8,61.2,83,71,57,29.80,29.68,18,4,18,0.00
2013-7-1,80.3,72.4,67.0,68.0,64.1,61.1,92,76,60,29.91,29.78,15,3,16,0.01
2013-7-2,86.5,74.1,64.3,65.8,63.1,60.8,90,70,46,30.01,29.88,14,2,15,0.00
2013-7-3,85.7,74.1,64.1,66.8,64.0,61.4,92,73,49,30.07,29.98,9,1,10,0.00
2013-7-4,88.2,77.1,65.8,72.2,67.7,62.2,90,74,50,30.02,29.91,14,2,14,0.00
2013-7-5,86.8,74.2,66.5,73.5,68.4,63.2,96,83,54,30.04,29.92,25,2,26,0.65
2013-7-6,89.0,77.3,66.6,73.3,69.8,63.3,95,79,57,30.04,29.93,10,1,11,0.00
2013-7-7,87.0,78.9,70.6,75.6,71.9,68.8,95,80,61,30.07,29.99,10,1,10,0.00
2013-7-8,92.8,81.0,71.9,77.6,73.7,70.0,95,80,55,30.12,30.02,8,1,10,0.00
2013-7-9,96.1,86.1,76.1,77.5,74.4,71.9,90,70,48,30.10,29.96,13,1,13,0.00
2013-7-10,98.2,87.1,77.9,80.6,75.7,71.4,85,70,47,30.02,29.83,17,2,17,0.00
2013-7-11,96.2,85.5,76.3,78.1,72.4,65.4,86,66,48,29.92,29.84,11,2,12,0.00
2013-7-12,87.8,78.4,67.4,67.6,64.2,60.4,79,63,48,29.99,29.90,13,2,15,0.00
2013-7-13,86.8,76.9,64.8,65.1,62.2,59.3,85,62,45,30.00,29.91,13,2,13,0.00
2013-7-14,88.3,77.4,69.0,73.6,68.9,63.0,89,76,58,30.04,29.93,17,3,17,0.00
2013-7-15,90.8,79.7,73.3,77.1,73.2,70.5,92,81,59,30.15,30.03,16,3,16,0.43
2013-7-16,91.8,82.7,73.7,75.6,73.0,70.4,90,74,54,30.22,30.14,13,2,13,0.00
2013-7-17,94.8,85.6,74.4,76.2,73.2,70.6,90,68,50,30.26,30.11,10,1,10,0.00
2013-7-18,93.5,80.5,72.4,78.4,74.3,68.7,95,82,60,30.15,30.00,20,1,20,1.07
2013-7-19,89.6,79.6,71.2,76.7,72.7,69.7,96,81,61,30.05,29.90,7,1,10,0.00
2013-7-20,94.5,84.2,74.3,76.5,74.0,70.8,91,73,54,29.95,29.80,9,1,13,0.00
2013-7-21,93.6,84.4,75.1,77.6,73.7,71.1,91,72,50,29.93,29.83,15,2,15,0.00
2013-7-22,88.3,77.7,71.3,77.1,72.9,67.7,96,86,61,29.96,29.83,14,2,14,2.05
2013-7-23,90.8,80.6,70.2,78.1,74.6,68.4,94,83,64,29.96,29.80,12,2,15,0.55
2013-7-24,88.3,80.8,75.3,76.8,73.5,69.3,93,79,62,29.93,29.81,9,2,12,0.00
2013-7-25,84.7,76.1,67.1,69.2,64.1,61.9,85,67,48,30.04,29.92,13,2,13,0.00
2013-7-26,85.6,74.9,64.2,68.1,65.2,61.2,90,73,51,30.04,29.93,6,1,9,0.00
2013-7-27,87.8,77.2,68.6,70.7,67.9,64.0,91,74,53,29.97,29.86,7,1,10,0.04
2013-7-28,83.3,74.2,68.0,68.7,64.3,61.5,83,72,55,30.03,29.91,10,2,10,0.00
2013-7-29,88.7,77.5,67.6,71.0,66.0,61.1,82,69,54,30.12,30.02,10,2,11,0.00
2013-7-30,86.1,78.9,73.3,75.1,71.1,66.8,90,77,63,30.10,29.98,7,1,10,0.04
2013-7-31,93.9,80.4,73.7,79.2,73.6,70.3,96,81,59,30.03,29.88,17,1,18,0.82
2013-8-1,89.2,80.4,73.5,75.5,72.0,68.6,94,77,56,30.01,29.93,13,1,13,0.00
2013-8-2,90.5,79.7,68.4,73.1,69.4,66.0,92,72,50,30.00,29.91,8,1,9,0.01
2013-8-3,85.4,78.7,74.8,75.8,72.6,69.7,89,82,72,30.03,29.89,19,1,19,0.00
2013-8-4,89.2,80.4,71.0,75.9,72.4,69.2,95,78,60,30.08,29.99,11,1,11,0.00
2013-8-5,84.3,76.8,71.7,75.9,72.2,68.0,94,86,71,30.02,29.88,9,1,10,0.33
2013-8-6,86.8,80.0,74.6,79.1,75.1,72.3,94,85,73,29.93,29.84,10,1,10,0.01
2013-8-7,93.4,83.8,75.5,79.6,76.1,72.7,92,79,58,29.92,29.82,9,1,15,0.00
2013-8-8,96.6,86.4,78.0,79.7,77.0,75.1,92,75,54,29.92,29.81,9,1,9,0.00
2013-8-9,98.2,86.5,76.1,80.1,75.5,71.4,92,72,44,29.98,29.89,11,1,12,0.00
2013-8-10,90.5,81.9,75.9,76.2,74.4,72.4,92,79,59,30.08,29.96,8,1,16,0.00
2013-8-11,88.3,79.8,75.4,78.9,75.5,72.0,94,87,72,30.10,30.00,15,1,16,0.64
2013-8-12,94.5,81.8,72.5,79.7,74.9,70.3,93,81,58,30.03,29.89,26,1,26,0.13
2013-8-13,86.0,78.0,71.2,76.7,72.1,68.5,95,83,64,29.98,29.88,11,1,11,0.03
2013-8-14,79.7,73.4,65.7,68.5,62.1,57.2,87,69,50,30.04,29.93,13,2,16,0.00
2013-8-15,81.2,70.0,58.9,60.8,57.8,54.5,87,67,44,30.05,29.97,8,1,11,0.00
2013-8-16,82.4,72.0,62.3,69.2,64.5,58.4,92,78,57,30.02,29.95,7,1,9,0.00
2013-8-17,81.6,72.9,66.5,70.1,67.0,64.3,93,82,63,30.06,29.97,10,2,14,0.00
2013-8-18,83.5,74.0,66.6,70.6,67.7,64.3,95,82,60,30.09,30.00,11,1,11,0.00
2013-8-19,88.0,76.4,66.3,71.6,68.9,64.5,95,79,55,30.07,29.96,10,1,10,0.00
2013-8-20,90.3,79.6,69.6,74.9,71.5,67.4,94,78,56,30.06,29.97,9,1,9,0.00
2013-8-21,95.0,81.7,71.9,76.9,72.8,69.4,94,76,47,30.10,30.00,7,1,10,0.00
2013-8-22,92.0,81.2,73.7,77.7,73.8,71.1,93,79,56,30.09,29.97,8,0,11,0.06
2013-8-23,93.8,82.6,70.9,76.3,72.3,68.8,94,73,50,30.04,29.94,12,1,12,0.00
2013-8-24,93.7,83.4,73.9,76.9,73.6,71.2,92,74,53,30.10,29.99,9,2,13,0.00
2013-8-25,90.0,80.2,74.5,76.2,72.8,70.9,91,79,61,30.22,30.10,7,1,10,0.00
2013-8-26,89.9,80.4,70.9,73.0,69.8,66.7,92,72,52,30.22,30.08,8,0,8,0.00
2013-8-27,92.7,80.9,67.8,70.4,67.6,64.3,89,66,47,30.12,30.00,9,0,9,0.00
2013-8-28,95.7,82.0,68.7,70.9,68.4,65.3,89,66,41,30.06,29.97,8,1,9,0.00
2013-8-29,97.4,83.9,70.5,74.1,71.0,67.0,90,68,46,30.04,29.93,12,1,12,0.00
2013-8-30,98.8,86.4,73.1,75.4,73.1,70.7,93,67,45,29.98,29.85,11,1,11,0.00
2013-8-31,99.0,87.0,75.3,76.1,73.0,70.1,85,65,46,29.89,29.78,6,1,14,0.00
2013-9-1,98.4,83.5,76.1,76.6,73.2,70.6,84,72,48,29.87,29.76,10,2,21,0.00
2013-9-2,92.4,84.2,77.1,76.8,74.4,72.1,86,73,57,29.91,29.78,15,2,15,0.00
2013-9-3,89.0,80.2,71.8,73.7,67.2,59.3,89,67,42,29.99,29.87,14,2,14,0.00
2013-9-4,88.0,76.9,65.1,68.7,65.3,61.9,91,69,50,30.08,29.97,13,1,13,0.00
2013-9-5,90.8,78.3,65.8,69.7,65.5,61.5,86,67,44,30.12,30.04,12,1,12,0.00
2013-9-6,92.0,79.1,68.0,69.1,65.9,62.5,86,66,41,30.11,29.99,9,1,9,0.00
2013-9-7,96.6,82.4,67.9,71.4,67.5,63.9,89,63,40,30.04,29.92,9,0,9,0.00
2013-9-8,99.8,85.3,71.3,74.0,69.7,66.0,85,62,39,29.96,29.85,9,1,9,0.00
2013-9-9,93.9,83.2,75.1,77.9,71.9,68.7,89,70,52,30.02,29.90,11,0,11,0.21
2013-9-10,99.1,82.3,75.0,76.7,72.2,70.0,92,73,43,30.09,29.98,17,1,17,0.51
2013-9-11,93.5,82.4,73.9,75.9,72.4,69.8,92,73,48,30.12,30.01,8,1,8,0.00
2013-9-12,96.8,82.0,73.3,77.2,71.2,68.3,85,72,46,30.03,29.89,25,1,28,0.65
2013-9-13,84.0,75.2,64.9,70.5,61.7,55.3,85,64,42,29.98,29.90,14,2,14,0.00
2013-9-14,77.3,66.8,55.6,56.0,52.8,49.7,86,63,42,30.07,29.98,13,2,13,0.00
2013-9-15,87.7,71.4,53.9,61.3,56.2,50.2,89,62,34,30.08,30.00,8,0,8,0.00
2013-9-16,90.3,75.7,61.4,68.0,60.9,55.8,85,63,32,30.11,30.03,11,1,11,0.00
2013-9-17,91.3,78.5,66.4,68.4,66.3,63.3,93,69,41,30.12,29.98,9,1,9,0.00
2013-9-18,87.0,78.1,70.6,74.7,70.2,65.7,91,77,61,30.07,29.97,14,1,14,0.00
2013-9-19,93.0,79.9,69.6,73.6,69.4,67.1,93,72,48,30.06,29.91,12,1,12,0.00
2013-9-20,76.6,73.5,69.6,73.8,69.9,66.7,95,89,73,29.95,29.78,9,0,9,2.07
2013-9-21,77.7,69.6,61.3,68.5,59.8,53.5,96,73,47,29.88,29.76,15,2,15,0.15
2013-9-22,78.2,66.4,54.4,56.7,54.5,51.2,89,68,45,29.93,29.83,10,2,14,0.00
2013-9-23,83.0,69.6,55.8,63.1,58.4,52.1,88,69,48,29.93,29.83,13,2,13,0.00
2013-9-24,77.6,71.0,66.6,71.7,67.5,60.9,95,89,79,29.88,29.76,6,1,8,0.06
2013-9-25,86.3,75.0,69.2,73.0,68.0,64.5,96,81,52,29.81,29.73,10,1,10,0.03
2013-9-26,87.1,75.1,65.8,72.5,67.2,64.0,95,78,53,29.96,29.80,10,1,10,0.01
2013-9-27,86.3,74.8,64.0,69.9,65.0,62.0,94,74,51,30.05,29.95,10,1,10,0.00
2013-9-28,83.3,72.9,63.6,64.4,61.9,59.2,87,70,51,30.09,29.98,12,1,12,0.00
2013-9-29,69.0,66.8,64.5,65.7,62.5,59.8,95,87,75,30.02,29.92,8,0,8,0.21
2013-9-30,75.8,68.9,65.4,70.0,66.5,63.9,96,92,81,29.95,29.88,10,0,10,0.08
2013-10-1,84.5,73.8,66.5,73.1,68.8,64.3,95,85,68,30.03,29.92,12,1,12,0.18
2013-10-2,85.6,75.6,69.9,70.3,68.1,65.9,92,79,57,30.07,29.98,11,0,11,0.00
2013-10-3,86.6,75.5,66.2,72.9,68.8,63.8,93,81,60,30.03,29.91,7,1,11,0.00
2013-10-4,86.2,75.6,68.9,74.8,70.9,67.1,95,86,67,30.03,29.93,12,1,12,0.00
2013-10-5,88.7,79.2,71.9,74.7,72.0,69.8,94,80,60,30.00,29.83,12,1,12,0.02
2013-10-6,74.7,63.2,55.0,71.6,53.9,46.6,94,74,48,29.97,29.83,15,3,25,0.89
2013-10-7,69.0,58.7,48.0,52.3,49.4,45.5,93,72,54,30.08,29.94,14,2,14,0.00
2013-10-8,74.1,61.5,49.3,55.5,51.4,46.8,92,71,48,30.12,30.02,14,1,14,0.00
2013-10-9,77.3,66.0,55.8,66.5,59.8,51.4,93,81,68,30.12,30.03,9,1,10,0.00
2013-10-10,81.3,68.5,59.0,66.9,61.5,57.3,96,80,52,30.12,29.98,8,0,8,0.01
2013-10-11,84.3,69.9,57.8,67.0,61.1,56.0,95,76,50,30.03,29.93,10,0,10,0.01
2013-10-12,77.5,67.0,60.5,69.8,63.5,58.2,94,89,75,30.10,29.96,14,1,20,0.20
2013-10-13,80.0,69.5,63.7,66.7,62.9,56.2,96,81,60,30.23,30.09,12,1,12,0.01
2013-10-14,82.9,69.6,56.5,65.0,59.7,51.5,84,72,52,30.19,30.02,10,1,10,0.00
2013-10-15,73.2,69.7,67.5,66.4,64.5,62.8,93,84,74,30.03,29.91,10,1,10,0.58
2013-10-16,67.7,61.4,56.4,66.2,58.6,54.4,95,91,82,29.99,29.91,14,2,14,0.76
2013-10-17,69.7,59.3,50.6,57.3,52.8,48.0,94,80,56,30.01,29.93,14,2,14,0.02
2013-10-18,72.4,58.6,45.4,54.3,50.1,43.8,95,76,47,30.06,29.92,8,0,8,0.01
2013-10-19,59.5,53.3,43.2,54.1,47.6,40.8,92,81,62,30.06,29.90,17,2,17,0.03
2013-10-20,68.5,52.8,40.0,48.4,43.4,38.1,98,73,43,30.11,29.98,7,0,7,0.01
2013-10-21,74.0,58.7,44.1,54.9,48.3,41.3,92,71,44,30.06,29.95,12,1,12,0.00
2013-10-22,68.0,58.1,52.3,52.9,48.0,42.5,91,72,40,30.05,29.88,14,1,14,0.01
2013-10-23,60.2,51.8,44.1,48.0,41.1,37.0,88,68,47,30.15,29.93,14,3,14,0.00
2013-10-24,65.4,52.7,43.1,48.2,41.6,34.0,88,67,50,30.36,30.09,10,2,16,0.00
2013-10-25,54.2,44.2,35.2,35.4,31.8,28.6,87,64,40,30.51,30.31,9,1,13,0.00
2013-10-26,66.6,51.3,36.6,49.4,40.3,31.9,88,68,44,30.32,30.07,13,1,13,0.00
2013-10-27,70.8,59.2,53.0,59.5,54.4,49.2,94,85,65,30.08,29.99,9,0,9,0.00
2013-10-28,74.0,61.7,55.9,59.8,56.4,54.2,94,84,57,30.20,30.04,6,0,6,0.00
2013-10-29,75.5,65.1,55.6,67.4,60.6,53.1,95,86,75,30.21,30.08,11,1,11,0.00
2013-10-30,75.6,68.6,61.7,67.1,63.3,59.3,93,84,72,30.16,29.93,13,1,13,0.00
2013-10-31,70.8,67.7,61.9,67.5,64.4,52.7,96,90,62,29.93,29.55,24,4,24,2.11
2013-11-1,74.0,62.0,49.4,55.1,51.0,47.5,94,70,44,29.87,29.74,13,2,19,0.00
2013-11-2,60.7,53.5,45.5,49.6,43.9,40.0,85,71,54,30.19,29.87,16,4,18,0.00
2013-11-3,61.4,48.5,37.2,44.1,39.7,35.1,93,74,47,30.29,30.13,11,1,11,0.00
2013-11-4,66.6,54.9,45.1,48.5,44.1,38.1,79,68,48,30.27,30.16,11,1,16,0.00
2013-11-5,72.3,61.7,54.4,55.5,50.1,44.8,75,66,54,30.27,30.11,16,2,16,0.00
2013-11-6,61.7,57.3,45.8,60.0,51.9,40.9,95,83,71,30.23,30.01,16,3,23,0.25
2013-11-7,56.7,46.8,38.2,40.9,36.8,33.1,90,70,42,30.39,30.23,16,2,16,0.00
2013-11-8,63.7,48.3,34.0,43.3,38.0,31.9,94,70,39,30.38,30.19,8,1,9,0.01
2013-11-9,61.5,51.4,43.1,45.0,41.7,37.3,82,70,48,30.27,30.17,8,0,10,0.00
2013-11-10,69.5,55.4,44.2,50.4,44.3,38.0,92,68,44,30.33,30.24,9,1,9,0.00
2013-11-11,72.3,55.6,40.2,49.9,43.4,35.5,89,66,39,30.28,30.13,11,0,11,0.00
2013-11-12,56.0,41.1,31.2,49.8,31.3,22.1,90,69,47,30.65,30.19,13,4,24,0.00
2013-11-13,49.7,35.9,26.2,28.9,24.0,20.4,87,64,36,30.70,30.44,11,1,11,0.00
2013-11-14,57.9,41.9,26.7,28.7,25.4,21.4,88,56,29,30.44,30.14,10,0,10,0.00
2013-11-15,59.9,51.1,41.1,52.2,45.1,27.5,93,80,58,30.15,30.00,7,1,10,0.03
2013-11-16,53.2,52.8,52.7,51.2,50.6,50.3,93,92,92,30.03,30.01,8,1,8,0.00
2013-11-17,76.6,70.8,64.0,70.9,64.4,39.3,95,82,38,29.95,29.69,23,4,23,0.89
2013-11-18,64.5,56.7,46.2,41.7,36.0,30.0,61,46,36,30.22,29.95,18,2,18,0.00
2013-11-19,53.3,45.1,37.7,31.5,29.5,26.9,73,55,39,30.29,30.15,10,1,13,0.00
2013-11-20,64.4,49.3,34.3,42.7,36.3,28.5,80,63,43,30.17,30.05,9,1,13,0.00
2013-11-21,68.8,58.5,50.8,59.0,52.2,42.6,93,80,67,30.19,30.08,14,2,16,0.38
2013-11-22,60.1,53.2,43.3,59.0,51.1,40.2,98,92,87,30.37,30.14,15,2,15,0.55
2013-11-23,46.7,40.7,29.6,40.9,31.3,18.1,92,70,45,30.55,30.33,20,4,20,0.00
2013-11-24,37.1,29.9,22.6,20.2,17.1,14.9,73,59,44,30.64,30.42,13,3,19,0.00
2013-11-25,35.9,34.2,31.7,33.5,26.5,17.4,92,75,55,30.43,30.12,10,2,10,0.19
2013-11-26,39.9,36.7,35.0,35.8,32.8,25.6,93,86,67,30.12,29.92,15,3,15,0.13
2013-11-27,34.7,28.7,21.3,25.6,17.7,14.6,85,64,51,30.40,30.12,23,4,23,0.00
2013-11-28,46.2,31.9,19.7,26.0,21.0,15.9,87,66,40,30.48,30.38,6,0,10,0.00
2013-11-29,58.4,40.7,27.7,35.1,29.7,23.5,85,67,41,30.56,30.42,9,0,9,0.00
2013-11-30,57.7,44.9,28.8,33.8,30.9,25.0,87,60,38,30.43,30.19,11,1,11,0.00
2013-12-1,60.2,51.3,40.1,46.1,38.5,30.9,72,62,56,30.20,29.91,9,1,9,0.00
2013-12-2,60.7,54.5,50.3,54.1,48.5,42.1,93,80,67,29.91,29.70,5,0,6,0.00
2013-12-3,59.8,54.6,49.2,58.4,53.1,47.4,96,95,93,29.74,29.65,9,1,9,0.01
2013-12-4,75.3,68.1,59.5,64.7,62.5,57.8,94,83,68,29.80,29.66,17,4,25,0.00
2013-12-5,69.9,49.4,34.2,66.1,45.7,32.1,92,87,78,30.13,29.79,12,4,17,0.54
2013-12-6,34.1,30.8,25.6,32.3,28.6,22.9,93,91,89,30.43,30.03,16,2,16,0.82
2013-12-7,28.4,25.4,21.8,25.9,22.3,18.3,90,88,86,30.56,30.32,0,0,0,0.00
2013-12-8,34.4,32.2,28.9,32.9,30.6,26.6,94,93,91,30.34,30.06,10,1,10,0.03
2013-12-9,33.2,31.8,30.8,30.6,28.4,27.2,94,87,82,30.29,30.15,12,2,14,0.01
2013-12-10,40.7,31.7,25.4,28.7,25.0,19.9,90,77,59,30.44,30.20,12,2,15,0.03
2013-12-11,47.3,34.1,22.9,34.4,27.0,20.9,92,76,51,30.57,30.38,13,2,13,0.00
2013-12-12,45.7,32.1,21.5,23.9,20.0,14.1,81,63,36,30.62,30.38,10,1,10,0.00
2013-12-13,48.1,37.0,26.2,37.2,26.6,19.9,92,68,41,30.38,29.90,12,1,12,0.58
2013-12-14,44.9,40.5,35.6,43.5,37.3,30.0,95,89,79,30.14,29.79,20,5,20,0.54
2013-12-15,40.5,34.1,31.8,31.1,28.7,27.0,89,80,68,30.28,30.13,18,3,18,0.00
2013-12-16,58.0,44.1,30.7,40.6,35.2,28.3,91,73,51,30.23,30.11,15,2,15,0.00
2013-12-17,61.4,48.2,34.3,43.1,37.2,31.3,89,67,49,30.28,30.14,17,2,17,0.00
2013-12-18,59.9,45.6,32.3,39.0,33.9,28.3,92,66,39,30.35,30.10,12,1,12,0.00
2013-12-19,60.6,53.8,44.3,53.5,45.8,37.3,79,74,66,30.14,29.93,18,1,18,0.00
2013-12-20,68.5,64.0,59.4,64.5,59.6,53.2,94,86,78,29.97,29.78,18,2,18,0.27
2013-12-21,75.8,66.8,54.6,67.4,62.2,53.4,96,85,70,29.78,29.44,42,3,42,1.58
2013-12-22,55.9,49.7,37.3,53.4,46.9,31.0,96,90,78,30.22,29.67,19,3,19,0.02
2013-12-23,37.4,34.0,28.4,31.4,26.6,24.3,85,74,64,30.51,30.22,19,3,19,0.00
2013-12-24,35.8,30.1,24.7,25.2,19.3,15.8,86,65,46,30.61,30.42,10,1,10,0.00
2013-12-25,50.8,36.1,23.3,32.3,24.2,16.1,83,63,41,30.43,30.30,8,0,8,0.00
2013-12-26,48.8,37.9,30.4,32.0,29.0,27.0,90,72,44,30.43,30.34,8,1,11,0.00
2013-12-27,55.8,40.2,26.8,34.4,29.4,24.1,91,68,38,30.47,30.35,6,0,6,0.00
2013-12-28,47.0,39.7,33.4,40.2,34.0,29.0,93,80,63,30.35,29.96,9,0,10,0.06
2013-12-29,57.9,45.2,34.8,45.4,39.3,29.0,100,81,60,30.18,29.94,21,2,21,0.05
2013-12-30,34.8,31.1,28.4,29.0,25.6,22.9,86,80,76,30.36,30.17,11,1,11,0.00
2013-12-31,49.9,34.3,23.2,31.2,26.4,20.5,91,75,48,30.47,30.31,7,0,7,0.02
2014-1-1,54.6,41.5,26.5,43.7,33.0,23.4,90,73,49,30.31,29.93,10,1,10,0.02
2014-1-2,49.8,34.7,23.1,47.3,27.4,13.3,93,75,62,30.44,29.87,26,5,26,0.20